Wind_Speed
5 6 10 15 16 18 16 12 13 7 11 10 10 10 14 22 13 14 13 23 24 28 26 26 30 33 35 33 36 41 44 45 47 45 45 47 48 41 39 40 40 37 40 40
4 6 2 13 20 18 19 14 8 6 7 8 15 19 9 18 24 21 20 19 29 32 29 28 29 29 27 28 27 29 34 38 40 42 41 39 42 39 35 37 37 41 35 42
5 2 6 8 5 13 17 17 9 12 9 7 7 9 16 27 30 30 31 27 26 33 33 34 33 32 29 27 22 23 26 29 35 39 41 43 46 44 40 31 29 29 31 27
4 1 3 9 3 14 18 20 15 8 5 9 9 19 21 28 34 35 35 37 35 33 32 35 37 34 30 28 24 22 25 27 30 34 38 40 42 36 27 27 24 26 25 26
2 2 7 9 6 2 8 24 23 15 9 8 19 15 18 27 24 28 29 33 34 32 38 35 40 36 33 29 25 24 25 25 27 28 28 27 26 26 28 25 26 26 26 26
3 2 6 18 5 16 12 20 5 7 9 12 9 8 6 27 26 25 21 24 27 37 39 34 37 37 32 29 26 26 26 24 22 20 18 22 24 25 24 23 23 22 22 21
4 4 8 8 1 7 1 7 22 16 16 14 5 17 31 34 30 28 28 33 33 26 29 33 34 33 33 27 25 24 23 21 21 21 23 24 24 23 23 22 21 21 21 21
4 4 8 7 4 7 5 36 27 22 19 18 22 19 18 28 28 24 29 29 27 21 28 28 30 30 28 26 25 22 20 21 23 23 22 22 23 24 24 23 23 23 22 23
9 7 7 7 5 12 6 12 32 25 22 18 18 17 14 11 19 23 18 14 15 20 26 26 28 28 27 25 22 20 20 20 22 22 22 21 22 23 23 22 22 23 23 22
2 7 11 20 26 22 16 8 33 31 19 14 14 14 11 12 13 15 18 19 23 25 25 26 26 23 19 17 18 19 21 22 22 21 21 20 19 19 19 19 19 18 21 21
8 10 10 23 25 25 23 21 17 24 19 10 11 14 17 12 6 11 12 14 19 22 23 23 22 20 19 17 19 21 21 22 21 20 20 21 20 19 18 18 15 14 15 16
4 6 5 12 20 16 19 21 12 19 16 15 11 10 13 11 9 7 11 15 15 17 20 21 20 19 19 19 19 18 20 21 20 19 20 19 20 20 17 14 14 13 13 13
6 19 19 14 5 9 7 5 10 14 13 14 14 7 5 5 5 5 5 11 15 20 20 20 19 19 19 18 18 17 17 18 17 16 17 17 18 16 17 15 12 11 11 12
14 14 4 12 12 15 12 11 10 9 9 10 9 3 4 2 9 9 10 15 17 18 19 18 20 20 20 20 19 18 18 19 20 21 20 18 15 11 7 5 8 9 8 7
12 12 9 12 9 10 10 10 10 8 8 5 2 8 10 12 15 16 17 20 25 25 22 21 21 21 21 21 21 22 23 22 20 18 15 11 9 9 9 8 9 9 9 9
14 9 10 11 12 12 11 9 9 10 8 8 8 10 14 20 24 23 22 24 27 28 27 25 24 23 23 20 19 17 13 11 9 8 8 7 6 7 8 8 7 6 6 7
10 6 11 11 11 13 13 13 12 11 12 12 14 16 19 23 27 28 28 28 30 31 28 25 24 18 14 9 6 7 7 7 5 4 5 4 4 4 3 4 5 5 6 8
2 2 3 4 7 8 12 13 12 13 17 17 20 22 26 28 35 34 32 30 29 28 24 19 14 12 10 9 8 8 7 7 5 4 2 1 0 1 2 4 5 6 8 10
7 9 9 10 9 12 14 16 16 17 18 21 28 35 36 35 33 31 27 27 26 26 23 17 14 13 13 11 8 7 6 5 4 3 2 3 4 4 5 6 7 7 8 9
20 19 19 22 22 23 24 22 23 27 28 30 33 33 33 30 27 25 24 29 26 23 17 15 13 13 12 10 7 7 6 5 5 5 5 6 6 6 6 6 7 9 11 12
26 27 29 30 31 29 30 29 30 32 30 29 30 31 31 28 26 24 24 28 22 16 14 12 11 11 10 9 8 8 8 7 7 7 7 6 6 7 8 9 10 11 13 14
27 30 32 32 31 31 29 29 30 30 30 29 29 27 26 26 24 24 24 22 17 13 11 11 10 9 9 8 8 8 8 8 8 7 7 7 8 9 10 11 12 14 15 16
29 31 31 30 29 29 27 27 27 26 26 24 22 20 20 20 18 17 20 16 14 13 11 11 10 9 9 9 9 9 8 8 8 8 8 9 9 10 12 14 14 15 13 14
26 26 26 24 23 24 26 24 23 22 22 21 20 18 16 15 17 16 15 13 12 11 11 11 10 10 11 11 10 10 10 10 10 10 11 11 12 12 13 13 14 15 15 16
19 19 19 18 20 21 19 17 17 17 16 17 16 16 14 14 12 12 9 9 9 10 11 11 12 12 13 13 12 12 12 11 10 11 11 11 11 13 14 15 15 16 17 19
15 16 16 16 16 14 13 11 14 14 12 13 13 12 11 10 9 8 8 8 9 10 11 10 10 10 11 11 11 11 11 11 12 13 13 13 15 15 15 16 17 18 19 20
13 12 12 12 12 10 9 9 7 10 8 8 7 6 6 5 5 5 5 6 7 9 10 11 12 12 13 12 12 12 12 11 12 13 13 14 15 16 17 18 19 21 22 22
Wind_Direction
204 260 340 322 298 276 263 240 222 216 221 233 227 230 229 224 238 231 234 235 220 218 220 231 229 235 240 243 246 246 247 247 249 246 242 242 242 245 250 244 249 252 242 247
271 244 3 312 295 285 274 271 275 259 250 224 236 229 269 241 232 226 229 224 225 221 227 224 219 220 227 234 239 242 244 249 246 242 238 234 235 242 247 248 252 244 244 238
251 358 341 300 333 317 281 262 232 246 240 229 243 230 238 249 250 239 231 236 234 234 233 219 223 223 221 227 233 240 241 243 243 239 236 237 241 244 253 244 225 228 238 226
260 0 229 263 300 305 287 273 249 235 221 232 233 255 264 271 252 249 247 253 242 238 246 234 228 223 224 228 232 238 237 237 240 237 236 238 239 239 228 224 219 220 224 229
220 204 285 287 208 79 30 309 299 235 218 239 268 286 288 277 262 252 258 257 252 240 244 244 229 224 224 224 230 235 234 234 237 238 236 232 220 212 202 217 219 219 225 227
165 199 247 280 193 54 17 286 248 307 287 242 221 251 253 281 258 253 261 225 234 236 246 242 225 219 219 224 230 229 226 229 229 233 227 211 207 210 213 210 214 219 207 204
215 242 278 273 242 78 145 302 316 322 312 296 243 255 247 252 270 254 246 232 238 245 244 230 216 214 214 221 220 216 214 213 210 212 213 212 215 210 207 206 209 199 194 189
202 222 274 229 97 142 183 293 290 302 315 320 327 312 260 249 251 249 244 243 243 241 220 214 213 213 213 209 207 206 207 206 202 200 199 201 203 202 202 203 198 194 193 189
195 209 220 232 265 218 206 266 284 288 312 343 342 314 294 271 261 240 224 207 204 202 205 207 210 213 210 202 201 204 198 198 194 191 191 195 198 198 193 192 193 190 192 191
120 251 262 276 257 256 229 217 287 284 309 343 360 11 324 253 244 225 204 201 206 204 201 199 203 202 214 212 205 199 190 186 186 186 181 178 182 188 191 191 196 201 198 201
259 284 292 278 270 268 253 244 272 281 282 319 345 10 13 12 321 268 244 225 215 206 199 197 196 196 204 207 201 193 185 181 180 176 176 173 177 182 191 193 204 211 209 211
239 28 287 277 307 324 250 240 273 272 312 314 335 348 358 350 5 331 276 249 215 200 192 190 190 189 189 191 195 200 184 174 176 178 180 183 184 178 174 182 185 190 195 204
298 319 306 302 19 7 42 13 262 277 293 298 305 332 335 308 319 340 219 215 201 189 187 187 183 182 182 186 189 191 188 177 177 179 176 177 174 180 181 178 191 199 209 221
352 3 16 340 336 345 347 334 318 306 308 307 298 229 222 225 170 163 180 195 185 172 169 171 170 167 170 176 182 182 181 175 173 168 165 162 158 154 163 201 208 209 220 240
355 11 340 305 315 353 346 334 337 351 354 360 119 151 153 173 161 147 157 158 164 164 156 159 158 147 156 166 171 159 151 145 144 148 159 179 191 186 194 217 245 258 257 266
329 350 339 355 8 9 14 21 31 49 72 79 96 114 125 129 134 144 144 143 139 123 130 136 131 122 127 132 135 138 146 158 171 177 171 178 206 236 254 257 259 263 272 279
353 351 344 356 6 19 30 39 46 55 78 93 101 114 125 127 124 119 117 117 117 110 108 111 107 114 119 125 132 127 131 135 138 161 179 195 210 218 242 264 277 281 282 283
359 342 12 30 38 50 51 56 68 78 83 104 117 119 117 116 110 109 108 107 106 103 98 98 104 108 109 106 111 122 131 135 142 139 129 136 223 305 305 301 306 305 303 298
67 71 64 69 74 80 79 79 87 95 107 115 116 110 110 110 110 110 111 107 103 99 92 94 95 98 99 99 103 109 111 109 102 84 50 22 357 346 333 326 321 316 309 304
82 85 91 93 89 88 92 97 100 103 107 105 104 103 101 101 104 104 103 94 90 93 98 95 90 85 81 79 72 67 62 55 44 29 14 5 356 347 337 327 316 311 309 308
89 90 89 89 90 94 96 103 106 103 105 106 105 103 103 104 102 101 97 92 85 85 84 82 77 74 66 55 48 43 37 29 21 15 8 1 348 336 330 326 323 319 317 316
94 95 92 91 91 92 94 97 100 101 100 99 98 99 99 94 92 88 82 82 82 76 75 73 65 57 49 40 35 29 24 18 10 1 353 344 337 331 327 323 320 318 316 314
98 96 97 97 98 99 98 94 93 94 93 92 92 93 92 92 85 83 83 76 72 66 63 61 59 48 33 22 17 12 9 6 3 -0 356 350 344 335 328 325 324 326 327 320
103 101 100 101 101 97 91 90 90 89 90 89 86 86 85 85 84 76 75 73 64 55 52 50 40 33 25 22 22 22 22 18 11 3 354 345 339 336 334 334 333 329 324 318
100 101 102 98 92 90 90 89 89 87 86 87 87 86 82 79 69 76 60 56 48 36 35 32 22 19 17 17 15 11 7 3 0 356 349 345 341 336 335 333 330 327 325 322
100 94 91 88 87 87 86 86 84 81 75 77 79 74 65 59 56 52 46 39 28 20 14 11 11 6 3 0 359 359 359 356 350 347 344 338 334 331 328 326 323 321 320 320
99 99 97 96 92 86 82 78 75 77 66 55 59 65 46 40 40 36 30 15 4 4 4 2 360 359 358 359 354 350 346 343 340 336 333 330 327 325 323 323 322 321 321 320
Height
1448 1444 1438 1438 1430 1422 1418 1412 1418 1413 1414 1406 1400 1398 1394 1394 1396 1397 1396 1399 1400 1402 1404 1406 1410 1413 1416 1419 1421 1424 1427 1429 1430 1435 1441 1445 1448 1452 1454 1455 1458 1460 1464 1466
1444 1436 1436 1433 1427 1421 1414 1412 1412 1407 1404 1394 1390 1390 1391 1390 1390 1392 1393 1394 1396 1399 1401 1402 1405 1407 1410 1414 1416 1419 1420 1422 1425 1430 1435 1438 1442 1444 1446 1450 1453 1454 1456 1460
1449 1443 1434 1431 1426 1418 1407 1400 1401 1406 1398 1389 1389 1388 1387 1385 1385 1386 1386 1389 1391 1393 1394 1396 1399 1401 1405 1409 1411 1414 1416 1417 1420 1424 1428 1431 1434 1437 1439 1441 1445 1448 1452 1454
1445 1440 1437 1409 1409 1410 1406 1396 1391 1388 1387 1386 1382 1380 1378 1378 1378 1378 1380 1381 1384 1385 1387 1389 1393 1397 1400 1403 1405 1408 1412 1414 1415 1417 1420 1423 1426 1429 1432 1436 1439 1442 1445 1449
1448 1443 1424 1412 1405 1404 1423 1405 1395 1381 1378 1378 1377 1375 1369 1372 1371 1370 1371 1372 1375 1378 1380 1382 1386 1390 1394 1397 1400 1403 1407 1409 1411 1412 1415 1418 1420 1423 1427 1431 1435 1438 1442 1445
1444 1446 1438 1390 1393 1396 1404 1401 1387 1384 1377 1370 1371 1378 1369 1367 1366 1366 1366 1366 1368 1370 1373 1375 1379 1384 1389 1392 1394 1399 1404 1405 1408 1411 1415 1419 1422 1424 1426 1430 1433 1435 1438 1442
1433 1433 1418 1397 1392 1389 1412 1406 1389 1382 1377 1371 1365 1358 1357 1362 1361 1360 1360 1360 1361 1364 1367 1370 1375 1379 1383 1386 1391 1397 1401 1403 1406 1410 1415 1418 1420 1423 1426 1429 1432 1434 1437 1440
1429 1430 1422 1392 1394 1393 1395 1396 1392 1384 1373 1364 1358 1352 1352 1354 1354 1353 1354 1354 1356 1360 1364 1369 1373 1377 1381 1385 1389 1394 1399 1402 1405 1408 1412 1416 1419 1422 1424 1427 1430 1433 1436 1439
1415 1407 1391 1391 1384 1386 1385 1388 1384 1382 1374 1362 1356 1351 1351 1348 1349 1348 1349 1351 1353 1357 1363 1367 1372 1375 1378 1383 1387 1390 1396 1402 1405 1407 1411 1415 1418 1420 1424 1427 1429 1432 1435 1438
1405 1388 1386 1384 1383 1384 1382 1380 1382 1378 1369 1362 1359 1355 1353 1349 1350 1352 1352 1352 1355 1358 1362 1366 1370 1376 1383 1385 1389 1392 1395 1401 1406 1408 1410 1416 1420 1423 1425 1428 1431 1433 1435 1437
1394 1388 1387 1382 1380 1376 1376 1376 1377 1373 1369 1365 1359 1355 1352 1350 1351 1353 1355 1356 1359 1361 1363 1369 1373 1377 1382 1386 1390 1394 1397 1399 1405 1409 1412 1416 1420 1424 1427 1429 1432 1434 1435 1437
1396 1392 1391 1382 1381 1377 1371 1374 1373 1371 1365 1362 1357 1353 1350 1353 1352 1352 1355 1362 1363 1366 1367 1371 1375 1379 1382 1386 1390 1394 1397 1400 1405 1409 1412 1415 1418 1421 1426 1429 1431 1433 1435 1436
1395 1386 1384 1383 1380 1375 1372 1372 1369 1366 1360 1357 1357 1353 1351 1354 1353 1352 1357 1362 1366 1368 1370 1374 1375 1378 1383 1388 1391 1394 1396 1400 1405 1409 1412 1414 1417 1419 1421 1425 1428 1430 1432 1433
1392 1382 1382 1382 1377 1371 1368 1366 1364 1361 1359 1356 1354 1353 1349 1351 1353 1351 1359 1363 1367 1370 1374 1378 1378 1381 1384 1388 1391 1393 1396 1398 1402 1406 1410 1412 1416 1419 1422 1426 1427 1428 1429 1430
1388 1385 1386 1385 1379 1373 1369 1367 1363 1358 1356 1354 1354 1351 1347 1344 1348 1355 1361 1363 1364 1364 1371 1377 1383 1384 1387 1389 1390 1393 1396 1401 1405 1407 1410 1413 1415 1418 1421 1423 1425 1426 1426 1426
1386 1383 1387 1383 1378 1375 1372 1370 1367 1365 1361 1356 1355 1354 1351 1352 1351 1358 1366 1368 1368 1371 1374 1380 1383 1388 1392 1395 1394 1398 1403 1406 1409 1411 1411 1413 1416 1419 1420 1421 1422 1422 1423 1423
1385 1386 1386 1383 1380 1378 1375 1371 1368 1367 1364 1360 1359 1362 1362 1363 1364 1369 1374 1376 1374 1379 1385 1390 1393 1396 1398 1401 1404 1405 1406 1409 1411 1412 1413 1414 1415 1416 1418 1420 1421 1421 1422 1422
1391 1389 1387 1385 1381 1379 1376 1375 1373 1372 1369 1373 1370 1370 1370 1373 1377 1381 1383 1385 1385 1388 1393 1397 1400 1401 1402 1405 1407 1409 1409 1410 1412 1413 1414 1415 1416 1416 1415 1418 1419 1420 1420 1419
1390 1387 1385 1382 1385 1380 1379 1377 1378 1376 1380 1381 1378 1375 1378 1383 1386 1390 1391 1392 1393 1396 1402 1403 1404 1405 1406 1408 1410 1411 1412 1412 1413 1414 1415 1415 1415 1415 1416 1416 1417 1417 1417 1416
1394 1394 1393 1389 1387 1384 1386 1387 1387 1386 1391 1387 1386 1388 1390 1394 1397 1398 1400 1399 1402 1404 1407 1408 1408 1408 1410 1413 1414 1414 1414 1414 1414 1414 1415 1414 1414 1415 1415 1415 1415 1414 1414 1412
1400 1397 1395 1392 1392 1395 1395 1396 1396 1394 1396 1397 1397 1398 1401 1403 1405 1406 1405 1404 1410 1411 1411 1412 1412 1413 1414 1415 1415 1415 1415 1415 1415 1415 1415 1415 1415 1414 1414 1413 1413 1412 1410 1409
1407 1405 1401 1401 1402 1404 1406 1405 1405 1405 1405 1406 1407 1409 1410 1411 1412 1411 1412 1413 1415 1416 1417 1417 1417 1417 1416 1416 1416 1416 1415 1415 1415 1415 1415 1414 1414 1413 1412 1411 1410 1408 1407 1405
1415 1412 1412 1415 1416 1417 1417 1415 1413 1413 1413 1414 1415 1416 1416 1417 1418 1417 1417 1420 1421 1421 1420 1420 1420 1420 1419 1418 1417 1416 1415 1415 1415 1415 1414 1413 1412 1411 1410 1408 1406 1405 1403 1401
1420 1421 1421 1423 1422 1421 1420 1421 1420 1419 1420 1421 1422 1423 1423 1423 1423 1424 1424 1425 1425 1424 1423 1423 1422 1421 1420 1418 1417 1416 1416 1415 1414 1413 1412 1411 1410 1409 1407 1405 1404 1401 1399 1397
1427 1426 1427 1427 1425 1425 1426 1426 1425 1426 1427 1426 1427 1427 1428 1427 1428 1429 1429 1428 1428 1427 1425 1424 1423 1421 1420 1419 1418 1417 1416 1415 1414 1413 1412 1411 1409 1407 1404 1402 1400 1398 1396 1394
1431 1431 1431 1431 1431 1432 1432 1432 1431 1432 1432 1432 1432 1431 1431 1431 1431 1431 1431 1430 1429 1428 1427 1425 1423 1422 1421 1420 1418 1417 1415 1414 1413 1411 1410 1408 1406 1404 1402 1400 1397 1395 1392 1389
1435 1436 1436 1436 1436 1436 1436 1435 1435 1434 1435 1435 1434 1434 1434 1434 1433 1433 1432 1432 1431 1429 1427 1425 1423 1421 1421 1420 1418 1417 1415 1413 1412 1410 1408 1406 1404 1402 1399 1396 1394 1390 1387 1385